#timestamp,LO_Frequency,Hit 
1497906015.0,286047008.1,N
1497906015.9,286047008.1,N
1497906035.8,286047009.7,N
1497906055.6,286047009.3,N
1497906075.4,286047009.8,N
1497906095.3,286047012.1,N
1497906115.1,286047012.2,N
1497906116.0,286047012.2,N
1497906135.8,286047011.0,N
1497906155.6,286047011.4,N
1497906175.5,286047011.6,N
1497906195.3,286047013.4,N
1497906215.1,286047013.2,N
1497906235.9,286047014.0,N
1497906255.7,286047010.9,N
1497906275.5,286047013.8,N
1497906295.4,286047012.7,N
1497906315.2,286047014.9,N
1497906335.0,286047015.3,N
1497906335.9,286047015.3,N
1497906355.8,286047017.2,N
1497906375.6,286047014.7,N
1497906395.4,286047016.4,N
1497906415.2,286047018.8,N
1497906435.1,286047015.7,N
1497906436.0,286047015.7,N
1497906455.8,286047016.6,N
1497906475.6,286047018.6,N
1497906495.5,286047014.2,N
1497906515.3,286047014.3,N
1497906535.1,286047017.2,N
1497906555.9,286047016.3,N
1497906575.7,286047018.4,N
1497906595.5,286047018.6,N
1497906615.4,286047017.8,N
1497906635.2,286047022.0,N
1497906655.0,286047021.8,N
1497906655.9,286047021.8,N
1497906675.8,286047021.7,N
1497906695.6,286047021.4,N
1497906715.4,286047018.9,N
1497906735.2,286047019.4,N
1497906755.1,286047019.9,N
1497906756.0,286047019.9,N
1497906775.8,286047021.5,N
1497906795.6,286047023.6,Y
1497906815.5,286047011.9,N
1497906835.3,286047011.1,N
1497906855.1,286047009.7,N
1497906875.9,286047009.4,N
1497906895.7,286047009.7,N
1497906915.5,286047009.6,N
1497906935.4,286047012.1,N
1497906955.2,286047011.4,N
1497906975.0,286047013.5,N
1497906975.9,286047013.5,N
1497906995.8,286047012.7,N
1497907015.6,286047013.4,N
1497907035.4,286047012.7,N
1497907055.2,286047014.4,N
1497907075.1,286047018.6,N
1497907076.0,286047018.6,N
1497907095.8,286047015.9,N
1497907115.6,286047018.4,N
1497907135.5,286047018.6,N
1497907155.3,286047017.9,N
1497907175.1,286047015.7,N
1497907195.9,286047020.4,N
1497907215.7,286047019.9,N
1497907235.5,286047020.4,N
1497907255.4,286047017.3,N
1497907275.2,286047019.3,N
1497907295.0,286047021.1,N
1497907295.9,286047021.1,N
1497907315.8,286047021.0,N
1497907335.6,286047019.8,N
1497907355.4,286047017.8,N
1497907375.2,286047017.7,N
1497907395.1,286047020.2,N
1497907396.0,286047020.2,N
1497907415.8,286047021.9,N
1497907435.6,286047019.4,N
1497907455.5,286047023.5,Y
1497907475.3,286047010.6,N
1497907495.1,286047008.4,N
1497907515.9,286047010.5,N
1497907535.7,286047009.6,N
1497907555.5,286047011.7,N
1497907575.4,286047011.4,N
1497907595.2,286047010.9,N
1497907615.0,286047013.5,N
1497907615.9,286047013.5,N
1497907635.8,286047011.8,N
1497907655.6,286047009.7,N
1497907675.4,286047009.3,N
1497907695.2,286047009.7,N
1497907715.1,286047012.4,N
1497907716.0,286047012.4,N
1497907735.8,286047009.5,N
1497907755.6,286047010.5,N
1497907775.5,286047009.4,N
1497907795.3,286047011.7,N
1497907815.1,286047011.9,N
1497907835.9,286047013.1,N
1497907855.7,286047014.9,N
1497907875.5,286047015.0,N
1497907895.4,286047014.6,N
1497907915.2,286047015.3,N
1497907935.0,286047015.1,N
1497907935.9,286047015.1,N
1497907955.8,286047015.2,N
1497907975.6,286047017.1,N
1497907995.4,286047017.1,N
1497908015.2,286047016.0,N
1497908035.1,286047022.0,N
1497908036.0,286047022.0,N
1497908055.8,286047021.9,N
1497908075.6,286047020.8,N
1497908095.5,286047021.6,N
1497908115.3,286047019.1,N
1497908135.1,286047017.3,N
1497908155.9,286047017.9,N
1497908175.7,286047018.8,N
1497908195.5,286047018.8,N
1497908215.4,286047018.0,N
1497908235.2,286047017.3,N
1497908255.0,286047020.1,N
1497908255.9,286047020.1,N
1497908275.8,286047020.4,N
1497908295.6,286047019.4,N
1497908315.4,286047020.4,N
1497908335.2,286047020.3,N
1497908355.1,286047023.1,N
1497908356.0,286047023.1,N
1497908375.8,286047020.5,N
1497908395.6,286047021.3,N
1497908415.5,286047020.8,N
1497908435.3,286047023.5,Y
1497908455.1,286047007.7,N
1497908475.9,286047009.3,N
1497908495.7,286047010.9,N
1497908515.5,286047012.9,N
1497908535.4,286047013.2,N
1497908555.2,286047013.5,N
1497908575.0,286047012.7,N
1497908575.9,286047012.7,N
1497908595.8,286047013.8,N
1497908615.6,286047012.8,N
1497908635.4,286047014.7,N
1497908655.3,286047014.7,N
1497908675.1,286047015.5,N
1497908676.0,286047015.5,N
1497908695.8,286047013.5,N
1497908715.6,286047012.9,N
1497908735.5,286047012.8,N
1497908755.3,286047012.6,N
1497908775.1,286047017.2,N
1497908795.9,286047018.4,N
1497908815.7,286047016.7,N
1497908835.5,286047014.6,N
1497908855.4,286047014.1,N
1497908875.2,286047016.6,N
1497908895.0,286047018.3,N
1497908895.9,286047018.3,N
1497908915.8,286047017.9,N
1497908935.6,286047019.0,N
1497908955.4,286047019.6,N
1497908975.2,286047018.0,N
1497908995.1,286047016.0,N
1497908996.0,286047016.0,N
1497909015.8,286047015.7,N
1497909035.6,286047019.9,N
1497909055.5,286047019.7,N
1497909075.3,286047021.9,N
1497909095.1,286047019.5,N
1497909115.9,286047023.5,Y
1497909135.7,286047009.9,N
1497909155.5,286047009.8,N
1497909175.4,286047012.0,N
1497909195.2,286047012.0,N
1497909215.0,286047012.7,N
1497909215.9,286047012.7,N
1497909235.8,286047013.5,N
1497909255.6,286047012.1,N
1497909275.4,286047015.6,N
1497909295.3,286047013.0,N
1497909315.1,286047015.0,N
1497909316.0,286047015.0,N
1497909335.8,286047012.9,N
1497909355.6,286047011.2,N
1497909375.5,286047010.0,N
1497909395.3,286047008.6,N
1497909415.1,286047009.5,N
1497909435.9,286047011.9,N
1497909455.7,286047011.8,N
1497909475.5,286047012.4,N
1497909495.4,286047012.2,N
1497909515.2,286047011.9,N
1497909535.0,286047009.4,N
1497909535.9,286047009.4,N
1497909555.8,286047012.0,N
1497909575.6,286047012.7,N
1497909595.4,286047015.0,N
